Regional Weather Roundup
Issued by NWS

Home | Current Version | Previous Version | Graphics & Text | Print | Product List | Glossary Off
Versions: 1 2 3 4 5 6 7 8 9 10 11 12 13 14 15 16 17 18 19 20 21 22 23 24 25 26 27 28 29 30 31 32 33 34 35 36 37 38 39 40 41 42 43 44 45 46 47 48 49 50

000
ASUS43 KTOP 181308
RWRKS

WEATHER ROUNDUP FOR KANSAS
NATIONAL WEATHER SERVICE GOODLAND KS
700 AM CST THU DEC 18 2014

NOTE:  "FAIR" INDICATES FEW OR NO CLOUDS BELOW 12,000 FEET WITH NO
SIGNIFICANT WEATHER AND/OR OBSTRUCTIONS TO VISIBILITY.

KSZ001>006-013>018-027>032-041>047-181400-
NORTHWEST KANSAS

CITY           SKY/WX    TMP DP  RH WIND       PRES   REMARKS
GOODLAND       MOCLDY     8   5  87 W7        30.06R FOG
HAYS           CLOUDY    27  18  69 NE6       30.14R
HILL CITY      CLOUDY    26  24  92 E3        30.14R
RUSSELL        CLOUDY    25  25 100 NE6       30.14R FOG
$$

KSZ061>065-074>080-084>089-181400-
SOUTHWEST KANSAS

CITY           SKY/WX    TMP DP  RH WIND       PRES   REMARKS
DODGE CITY     FOG       28  26  92 NE7       30.11R VSB 1/2
ELKHART          N/A     29  23  78 NW7         N/A
GARDEN CITY    FOG       28  28 100 E3        30.08R VSB 1
GREAT BEND     CLOUDY    27  21  80 E3        30.15R
LIBERAL        CLOUDY    32  28  86 NE3       30.09R
PRATT          FOG       28  28 100 NE5       30.14R VSB 3/4
$$

KSZ066>073-081>083-090>101-181400-
SOUTHEAST KANSAS

CITY           SKY/WX    TMP DP  RH WIND       PRES   REMARKS
CHANUTE        CLOUDY    31  30  96 NE3       30.18R
COFFEYVILLE    CLOUDY    34  33  96 E7        30.18R
HUTCHINSON     CLOUDY    30  27  88 N6        30.16R FOG
MEDICINE LODGE   N/A     32  32 100 NE3       30.14R
NEWTON         CLOUDY    28  25  86 CALM      30.17R
PARSONS        CLOUDY    34  32  93 E5        30.19R
WICHITA INTL   FOG       32  30  92 NE6       30.15R VSB 3/4
WICHITA JABRA  CLOUDY    29  29 100 N3        30.15R FOG
WICHITA MCCONL CLOUDY    30  30  99 N5        30.16R FOG
WINFIELD       CLOUDY    32  32 100 E5        30.16R FOG
$$

KSZ007>012-019>026-033>040-048>060-102>105-181400-
NORTHEAST KANSAS

CITY           SKY/WX    TMP DP  RH WIND       PRES   REMARKS
CONCORDIA      LGT SNOW  25  24  96 NE5       30.18R FOG
EMPORIA        LGT SNOW  28  27  96 E5        30.18R FOG
LAWRENCE       LGT SNOW  29  27  92 E3        30.21S FOG
MANHATTAN      LGT SNOW  27  26  96 NE6       30.21R FOG
MARYSVILLE     LGT SNOW  27  27 100 CALM      30.20R
OLATHE IND     LGT SNOW  29  27  92 E6        30.20R FOG
OLATHE EXE     LGT SNOW  29  27  92 E8        30.18S FOG
SALINA         LGT SNOW  28  26  92 NE5       30.19R FOG
TOPEKA BILLARD LGT SNOW  30  27  88 E5        30.22R FOG
TOPEKA FORBES  LGT SNOW  29  26  89 E5        30.20R FOG
$$


USA.gov is the U.S. government's official web portal to all federal, state and local government web resources and services.